�N����,�����b,���ԉ��x,���Ԏ��x,��󒲎�,����,�����W
2003/10/1,0:00:00,21.2 ,65.1 ,19.8 ,20.9 ,20.3 
2003/10/1,0:15:00,21.2 ,65.7 ,19.8 ,20.9 ,20.1 
2003/10/1,0:30:00,21.1 ,65.8 ,19.8 ,20.9 ,20.0 
2003/10/1,0:45:00,21.1 ,65.7 ,19.8 ,20.5 ,19.9 
2003/10/1,1:00:00,21.0 ,65.3 ,19.7 ,20.5 ,19.8 
2003/10/1,1:15:00,21.0 ,64.9 ,19.7 ,20.5 ,19.7 
2003/10/1,1:30:00,20.9 ,64.9 ,19.7 ,20.5 ,19.7 
2003/10/1,1:45:00,20.9 ,64.8 ,19.7 ,20.5 ,19.7 
2003/10/1,2:00:00,20.8 ,65.5 ,19.7 ,20.5 ,19.6 
2003/10/1,2:15:00,20.8 ,65.5 ,19.6 ,20.5 ,19.7 
2003/10/1,2:30:00,20.7 ,65.4 ,19.6 ,20.5 ,19.6 
2003/10/1,2:45:00,20.7 ,65.3 ,19.6 ,20.5 ,19.6 
2003/10/1,3:00:00,20.6 ,65.2 ,19.6 ,20.5 ,19.6 
2003/10/1,3:15:00,20.6 ,65.2 ,19.6 ,20.5 ,19.5 
2003/10/1,3:30:00,20.5 ,65.1 ,19.5 ,20.5 ,19.5 
2003/10/1,3:45:00,20.4 ,65.1 ,19.5 ,20.5 ,19.4 
2003/10/1,4:00:00,20.4 ,65.1 ,19.5 ,20.5 ,19.4 
2003/10/1,4:15:00,20.3 ,65.1 ,19.4 ,20.5 ,19.3 
2003/10/1,4:30:00,20.3 ,65.1 ,19.4 ,20.5 ,19.2 
2003/10/1,4:45:00,20.2 ,65.2 ,19.4 ,20.5 ,19.2 
2003/10/1,5:00:00,20.2 ,65.2 ,19.4 ,20.5 ,19.2 
2003/10/1,5:15:00,20.1 ,65.3 ,19.3 ,20.5 ,19.2 
2003/10/1,5:30:00,20.1 ,65.3 ,19.3 ,20.5 ,19.0 
2003/10/1,5:45:00,20.0 ,65.3 ,19.3 ,20.5 ,18.9 
2003/10/1,6:00:00,20.0 ,65.3 ,19.3 ,20.5 ,18.9 
2003/10/1,6:15:00,20.0 ,65.3 ,19.2 ,20.5 ,18.9 
2003/10/1,6:30:00,19.9 ,65.3 ,19.2 ,20.5 ,19.0 
2003/10/1,6:45:00,20.0 ,65.6 ,19.2 ,20.0 ,19.1 
2003/10/1,7:00:00,20.1 ,65.8 ,19.2 ,20.0 ,19.3 
2003/10/1,7:15:00,20.2 ,66.2 ,19.1 ,20.0 ,19.4 
2003/10/1,7:30:00,20.4 ,66.1 ,19.1 ,20.1 ,19.5 
2003/10/1,7:45:00,20.5 ,65.9 ,19.1 ,20.1 ,19.6 
2003/10/1,8:00:00,20.7 ,65.2 ,19.1 ,20.1 ,20.0 
2003/10/1,8:15:00,20.7 ,65.6 ,19.1 ,20.1 ,20.2 
2003/10/1,8:30:00,20.7 ,65.5 ,19.2 ,20.1 ,20.2 
2003/10/1,8:45:00,20.7 ,65.2 ,19.2 ,20.1 ,20.2 
2003/10/1,9:00:00,20.8 ,64.9 ,19.2 ,20.1 ,20.4 
2003/10/1,9:15:00,20.9 ,64.8 ,19.3 ,20.1 ,20.7 
2003/10/1,9:30:00,20.9 ,64.9 ,19.3 ,20.1 ,20.9 
2003/10/1,9:45:00,21.0 ,64.5 ,19.3 ,20.1 ,20.9 
2003/10/1,10:00:00,21.1 ,64.3 ,19.4 ,20.1 ,21.1 
2003/10/1,10:15:00,21.2 ,64.2 ,19.4 ,20.1 ,21.3 
2003/10/1,10:30:00,21.3 ,64.1 ,19.4 ,20.1 ,21.5 
2003/10/1,10:45:00,21.3 ,64.2 ,19.5 ,20.1 ,21.6 
2003/10/1,11:00:00,21.4 ,64.2 ,19.5 ,20.1 ,21.7 
2003/10/1,11:15:00,21.4 ,64.1 ,19.5 ,20.1 ,21.7 
2003/10/1,11:30:00,21.5 ,63.9 ,19.6 ,20.2 ,21.8 
2003/10/1,11:45:00,21.6 ,63.8 ,19.6 ,20.2 ,21.9 
2003/10/1,12:00:00,21.6 ,63.8 ,19.6 ,20.2 ,22.0 
2003/10/1,12:15:00,21.7 ,63.5 ,19.7 ,20.2 ,22.0 
2003/10/1,12:30:00,21.8 ,63.3 ,19.7 ,20.2 ,22.1 
2003/10/1,12:45:00,21.8 ,63.5 ,19.7 ,20.2 ,22.2 
2003/10/1,13:00:00,21.9 ,63.3 ,19.8 ,20.2 ,22.2 
2003/10/1,13:15:00,21.9 ,63.5 ,19.8 ,20.2 ,22.2 
2003/10/1,13:30:00,21.9 ,63.6 ,19.8 ,20.2 ,22.2 
2003/10/1,13:45:00,22.0 ,63.5 ,19.9 ,20.2 ,22.2 
2003/10/1,14:00:00,22.0 ,63.7 ,19.9 ,20.2 ,22.2 
2003/10/1,14:15:00,22.0 ,63.8 ,19.9 ,20.3 ,22.1 
2003/10/1,14:30:00,22.0 ,64.0 ,20.0 ,20.3 ,22.1 
2003/10/1,14:45:00,22.0 ,64.1 ,20.0 ,20.3 ,22.1 
2003/10/1,15:00:00,22.0 ,64.2 ,20.0 ,20.3 ,22.1 
2003/10/1,15:15:00,22.0 ,64.3 ,20.1 ,20.3 ,22.1 
2003/10/1,15:30:00,22.0 ,64.4 ,20.1 ,20.3 ,22.1 
2003/10/1,15:45:00,22.0 ,64.5 ,20.0 ,20.3 ,22.1 
2003/10/1,16:00:00,21.9 ,64.7 ,19.9 ,20.3 ,22.0 
2003/10/1,16:15:00,21.9 ,64.9 ,19.9 ,20.3 ,22.0 
2003/10/1,16:30:00,21.9 ,65.2 ,20.1 ,20.4 ,22.0 
2003/10/1,16:45:00,21.9 ,65.4 ,20.1 ,20.4 ,21.9 
2003/10/1,17:00:00,21.9 ,65.8 ,20.2 ,20.4 ,21.8 
2003/10/1,17:15:00,21.8 ,65.8 ,20.2 ,20.4 ,21.8 
2003/10/1,17:30:00,21.8 ,65.9 ,20.2 ,20.4 ,21.7 
2003/10/1,17:45:00,21.8 ,65.8 ,20.2 ,20.4 ,21.6 
2003/10/1,18:00:00,21.8 ,65.6 ,20.2 ,20.4 ,21.4 
2003/10/1,18:15:00,21.7 ,65.6 ,20.2 ,20.4 ,21.3 
2003/10/1,18:30:00,21.7 ,65.6 ,20.2 ,20.4 ,21.1 
2003/10/1,18:45:00,21.7 ,65.5 ,20.2 ,20.5 ,21.0 
2003/10/1,19:00:00,21.6 ,65.6 ,20.1 ,20.5 ,21.0 
2003/10/1,19:15:00,21.6 ,65.6 ,20.1 ,20.5 ,20.8 
2003/10/1,19:30:00,21.6 ,65.7 ,20.1 ,20.5 ,20.7 
2003/10/1,19:45:00,21.5 ,65.7 ,20.1 ,20.5 ,20.7 
2003/10/1,20:00:00,21.5 ,65.8 ,20.1 ,20.5 ,20.6 
2003/10/1,20:15:00,21.4 ,65.8 ,20.1 ,20.5 ,20.5 
2003/10/1,20:30:00,21.4 ,65.8 ,20.1 ,20.5 ,20.5 
2003/10/1,20:45:00,21.4 ,65.8 ,20.1 ,20.5 ,20.5 
2003/10/1,21:00:00,21.4 ,65.8 ,20.0 ,20.5 ,20.5 
2003/10/1,21:15:00,21.3 ,65.8 ,20.0 ,20.5 ,20.4 
2003/10/1,21:30:00,21.3 ,65.9 ,20.0 ,20.5 ,20.4 
2003/10/1,21:45:00,21.3 ,65.9 ,20.0 ,20.5 ,20.4 
2003/10/1,22:00:00,21.2 ,65.9 ,20.0 ,20.6 ,20.3 
2003/10/1,22:15:00,21.2 ,65.9 ,20.0 ,20.6 ,20.2 
2003/10/1,22:30:00,21.2 ,65.9 ,20.0 ,20.6 ,20.2 
2003/10/1,22:45:00,21.1 ,66.0 ,20.0 ,20.6 ,20.2 
2003/10/1,23:00:00,21.1 ,66.0 ,19.9 ,20.6 ,20.1 
2003/10/1,23:15:00,21.1 ,66.1 ,19.9 ,20.6 ,20.1 
2003/10/1,23:30:00,21.0 ,66.1 ,19.9 ,20.6 ,20.1 
2003/10/1,23:45:00,21.0 ,66.3 ,19.9 ,20.6 ,20.5 
2003/10/2,0:00:00,21.1 ,66.6 ,19.9 ,20.6 ,20.7 
2003/10/2,0:15:00,21.1 ,66.5 ,19.9 ,21.4 ,20.7 
2003/10/2,0:30:00,21.1 ,66.6 ,19.9 ,21.4 ,20.6 
2003/10/2,0:45:00,21.1 ,66.9 ,19.9 ,21.4 ,20.6 
2003/10/2,1:00:00,21.1 ,67.0 ,19.8 ,20.3 ,20.5 
2003/10/2,1:15:00,21.0 ,67.0 ,19.8 ,20.4 ,20.4 
2003/10/2,1:30:00,21.0 ,67.1 ,19.8 ,20.4 ,20.3 
2003/10/2,1:45:00,21.0 ,67.1 ,19.8 ,20.4 ,20.2 
2003/10/2,2:00:00,20.9 ,67.2 ,19.8 ,20.4 ,20.1 
2003/10/2,2:15:00,20.9 ,67.2 ,19.8 ,20.4 ,20.1 
2003/10/2,2:30:00,20.9 ,67.2 ,19.8 ,20.4 ,20.1 
2003/10/2,2:45:00,20.8 ,67.1 ,19.8 ,20.4 ,20.0 
2003/10/2,3:00:00,20.8 ,67.2 ,19.8 ,20.4 ,19.8 
2003/10/2,3:15:00,20.8 ,67.2 ,19.8 ,20.4 ,19.8 
2003/10/2,3:30:00,20.7 ,67.2 ,19.7 ,20.4 ,19.7 
2003/10/2,3:45:00,20.7 ,67.2 ,19.7 ,20.4 ,19.8 
2003/10/2,4:00:00,20.7 ,67.3 ,19.7 ,20.4 ,20.0 
2003/10/2,4:15:00,20.7 ,67.4 ,19.7 ,20.4 ,20.1 
2003/10/2,4:30:00,20.6 ,67.4 ,19.7 ,20.4 ,20.0 
2003/10/2,4:45:00,20.6 ,67.4 ,19.7 ,20.4 ,19.8 
2003/10/2,5:00:00,20.6 ,67.5 ,19.7 ,20.4 ,19.7 
2003/10/2,5:15:00,20.6 ,67.5 ,19.6 ,20.4 ,19.7 
2003/10/2,5:30:00,20.5 ,67.5 ,19.6 ,20.4 ,19.8 
2003/10/2,5:45:00,20.5 ,67.5 ,19.6 ,20.4 ,19.7 
2003/10/2,6:00:00,20.5 ,67.6 ,19.6 ,20.4 ,19.7 
2003/10/2,6:15:00,20.4 ,67.6 ,19.6 ,20.4 ,19.7 
2003/10/2,6:30:00,20.4 ,67.7 ,19.6 ,20.4 ,19.6 
2003/10/2,6:45:00,20.4 ,67.7 ,19.6 ,20.4 ,19.6 
2003/10/2,7:00:00,20.4 ,67.8 ,19.5 ,20.4 ,19.6 
2003/10/2,7:15:00,20.4 ,67.9 ,19.5 ,20.4 ,19.5 
2003/10/2,7:30:00,20.3 ,67.9 ,19.5 ,20.4 ,19.5 
2003/10/2,7:45:00,20.3 ,68.1 ,19.5 ,20.4 ,19.5 
2003/10/2,8:00:00,20.3 ,68.2 ,19.5 ,19.5 ,19.5 
2003/10/2,8:15:00,20.3 ,68.3 ,19.5 ,19.5 ,19.4 
2003/10/2,8:30:00,20.3 ,68.3 ,19.5 ,19.5 ,19.4 
2003/10/2,8:45:00,20.2 ,68.4 ,19.5 ,19.6 ,19.3 
2003/10/2,9:00:00,20.2 ,68.4 ,19.4 ,19.6 ,19.3 
2003/10/2,9:15:00,20.2 ,68.5 ,19.4 ,19.6 ,19.2 
2003/10/2,9:30:00,20.2 ,68.5 ,19.4 ,19.6 ,19.2 
2003/10/2,9:45:00,20.1 ,68.5 ,19.4 ,19.6 ,19.2 
2003/10/2,10:00:00,20.1 ,68.6 ,19.4 ,19.6 ,19.2 
2003/10/2,10:15:00,20.1 ,68.7 ,19.4 ,19.6 ,19.2 
2003/10/2,10:30:00,20.1 ,69.0 ,19.4 ,19.6 ,19.3 
2003/10/2,10:45:00,20.1 ,69.2 ,19.4 ,19.6 ,19.5 
2003/10/2,11:00:00,20.1 ,69.7 ,19.4 ,19.6 ,19.6 
2003/10/2,11:15:00,20.1 ,70.0 ,19.4 ,19.6 ,19.7 
2003/10/2,11:30:00,20.2 ,69.8 ,19.4 ,19.6 ,19.9 
2003/10/2,11:45:00,20.2 ,70.2 ,19.4 ,19.6 ,20.0 
2003/10/2,12:00:00,20.3 ,69.7 ,19.4 ,19.7 ,20.1 
2003/10/2,12:15:00,20.3 ,70.0 ,19.5 ,19.7 ,20.2 
2003/10/2,12:30:00,20.4 ,70.3 ,19.5 ,19.7 ,20.3 
2003/10/2,12:45:00,20.4 ,70.0 ,19.5 ,19.7 ,20.4 
2003/10/2,13:00:00,20.4 ,70.0 ,19.5 ,19.7 ,20.4 
2003/10/2,13:15:00,20.4 ,70.2 ,19.5 ,19.7 ,20.4 
2003/10/2,13:30:00,20.4 ,70.2 ,19.5 ,19.7 ,20.4 
2003/10/2,13:45:00,20.5 ,70.1 ,19.6 ,19.7 ,20.4 
2003/10/2,14:00:00,20.5 ,69.9 ,19.6 ,19.7 ,20.4 
2003/10/2,14:15:00,20.5 ,69.9 ,19.6 ,19.7 ,20.5 
2003/10/2,14:30:00,20.5 ,69.7 ,19.6 ,19.7 ,20.5 
2003/10/2,14:45:00,20.6 ,69.8 ,19.6 ,19.7 ,20.6 
2003/10/2,15:00:00,20.6 ,69.4 ,19.6 ,19.7 ,20.6 
2003/10/2,15:15:00,20.6 ,69.1 ,19.6 ,19.7 ,20.7 
2003/10/2,15:30:00,20.6 ,69.0 ,19.6 ,19.8 ,20.7 
2003/10/2,15:45:00,20.6 ,68.9 ,19.6 ,19.8 ,20.6 
2003/10/2,16:00:00,20.6 ,68.6 ,19.6 ,19.8 ,20.7 
2003/10/2,16:15:00,20.6 ,68.3 ,19.6 ,19.8 ,20.6 
2003/10/2,16:30:00,20.6 ,68.0 ,19.6 ,19.8 ,20.5 
2003/10/2,16:45:00,20.6 ,67.8 ,19.6 ,19.8 ,20.4 
2003/10/2,17:00:00,20.6 ,67.4 ,19.6 ,19.8 ,20.4 
2003/10/2,17:15:00,20.6 ,67.3 ,19.6 ,19.8 ,20.3 
2003/10/2,17:30:00,20.5 ,67.1 ,19.6 ,19.8 ,20.2 
2003/10/2,17:45:00,20.5 ,67.0 ,19.6 ,19.8 ,20.1 
2003/10/2,18:00:00,20.5 ,66.8 ,19.6 ,19.8 ,20.1 
2003/10/2,18:15:00,20.5 ,66.8 ,19.6 ,19.8 ,20.0 
2003/10/2,18:30:00,20.4 ,66.7 ,19.6 ,19.8 ,19.9 
2003/10/2,18:45:00,20.4 ,66.5 ,19.5 ,19.8 ,19.8 
2003/10/2,19:00:00,20.4 ,66.5 ,19.5 ,19.8 ,19.8 
2003/10/2,19:15:00,20.3 ,66.5 ,19.5 ,19.8 ,19.8 
2003/10/2,19:30:00,20.3 ,66.4 ,19.5 ,19.9 ,19.7 
2003/10/2,19:45:00,20.3 ,66.4 ,19.5 ,19.9 ,19.7 
2003/10/2,20:00:00,20.2 ,66.4 ,19.5 ,19.9 ,19.7 
2003/10/2,20:15:00,20.2 ,66.4 ,19.5 ,19.9 ,19.7 
2003/10/2,20:30:00,20.2 ,66.4 ,19.4 ,19.9 ,19.6 
2003/10/2,20:45:00,20.2 ,66.4 ,19.4 ,19.9 ,19.7 
2003/10/2,21:00:00,20.1 ,66.4 ,19.4 ,19.9 ,19.6 
2003/10/2,21:15:00,20.1 ,66.4 ,19.4 ,19.9 ,19.6 
2003/10/2,21:30:00,20.1 ,66.4 ,19.4 ,19.9 ,19.6 
2003/10/2,21:45:00,20.1 ,66.5 ,19.4 ,19.9 ,19.6 
2003/10/2,22:00:00,20.1 ,66.5 ,19.4 ,19.9 ,19.6 
2003/10/2,22:15:00,20.0 ,66.7 ,19.4 ,19.9 ,19.6 
2003/10/2,22:30:00,20.0 ,67.0 ,19.3 ,19.9 ,19.5 
2003/10/2,22:45:00,20.0 ,67.1 ,19.3 ,19.9 ,19.5 
2003/10/2,23:00:00,20.0 ,67.4 ,19.3 ,19.9 ,19.5 
2003/10/2,23:15:00,20.0 ,67.6 ,19.3 ,19.9 ,19.4 
2003/10/2,23:30:00,20.0 ,67.7 ,19.3 ,19.9 ,19.3 
2003/10/2,23:45:00,20.0 ,68.2 ,19.3 ,19.9 ,19.4 
2003/10/3,0:00:00,20.0 ,68.3 ,19.3 ,19.9 ,19.4 
2003/10/3,0:15:00,20.0 ,68.4 ,19.3 ,19.9 ,19.4 
2003/10/3,0:30:00,20.0 ,68.5 ,19.3 ,19.9 ,19.4 
2003/10/3,0:45:00,20.0 ,68.5 ,19.3 ,19.9 ,19.4 
2003/10/3,1:00:00,20.0 ,68.6 ,19.3 ,19.3 ,19.4 
2003/10/3,1:15:00,20.0 ,68.6 ,19.3 ,19.3 ,19.3 
2003/10/3,1:30:00,20.0 ,68.6 ,19.3 ,19.4 ,19.3 
2003/10/3,1:45:00,19.9 ,68.6 ,19.3 ,19.4 ,19.3 
2003/10/3,2:00:00,19.9 ,68.6 ,19.3 ,19.4 ,19.2 
2003/10/3,2:15:00,19.9 ,68.7 ,19.3 ,19.4 ,19.2 
2003/10/3,2:30:00,19.9 ,68.7 ,19.2 ,19.4 ,19.2 
2003/10/3,2:45:00,19.8 ,68.8 ,19.2 ,19.4 ,19.2 
2003/10/3,3:00:00,19.8 ,68.7 ,19.2 ,19.4 ,19.1 
2003/10/3,3:15:00,19.8 ,68.8 ,19.2 ,19.4 ,19.1 
2003/10/3,3:30:00,19.8 ,68.8 ,19.2 ,19.4 ,19.1 
2003/10/3,3:45:00,19.8 ,68.8 ,19.2 ,19.4 ,19.0 
2003/10/3,4:00:00,19.7 ,68.8 ,19.2 ,19.4 ,19.0 
2003/10/3,4:15:00,19.7 ,68.9 ,19.2 ,19.4 ,19.0 
2003/10/3,4:30:00,19.7 ,68.8 ,19.1 ,19.4 ,19.0 
2003/10/3,4:45:00,19.7 ,68.8 ,19.1 ,19.4 ,18.9 
2003/10/3,5:00:00,19.7 ,68.9 ,19.1 ,19.4 ,18.9 
2003/10/3,5:15:00,19.6 ,68.9 ,19.1 ,19.4 ,18.8 
2003/10/3,5:30:00,19.6 ,68.8 ,19.1 ,19.4 ,18.9 
2003/10/3,5:45:00,19.6 ,68.8 ,19.1 ,19.4 ,18.9 
2003/10/3,6:00:00,19.6 ,68.9 ,19.0 ,19.4 ,18.8 
2003/10/3,6:15:00,19.6 ,68.9 ,19.0 ,19.4 ,18.8 
2003/10/3,6:30:00,19.6 ,68.9 ,19.0 ,19.4 ,18.9 
2003/10/3,6:45:00,19.5 ,69.0 ,19.0 ,19.4 ,18.8 
2003/10/3,7:00:00,19.5 ,69.0 ,19.0 ,19.5 ,18.8 
2003/10/3,7:15:00,19.5 ,69.0 ,19.0 ,19.5 ,18.8 
2003/10/3,7:30:00,19.6 ,68.9 ,19.0 ,19.5 ,18.9 
2003/10/3,7:45:00,19.6 ,69.3 ,19.0 ,19.5 ,19.1 
2003/10/3,8:00:00,19.6 ,69.0 ,19.0 ,19.5 ,19.2 
2003/10/3,8:15:00,19.7 ,69.3 ,19.0 ,19.5 ,19.2 
2003/10/3,8:30:00,19.8 ,69.0 ,19.0 ,19.5 ,19.4 
2003/10/3,8:45:00,19.9 ,68.8 ,19.0 ,19.5 ,19.6 
2003/10/3,9:00:00,20.0 ,68.7 ,19.0 ,19.5 ,19.9 
2003/10/3,9:15:00,20.1 ,68.6 ,19.0 ,19.5 ,20.1 
2003/10/3,9:30:00,20.3 ,68.5 ,19.1 ,19.5 ,20.4 
2003/10/3,9:45:00,20.3 ,68.7 ,19.1 ,19.5 ,20.6 
2003/10/3,10:00:00,20.3 ,68.7 ,19.1 ,19.5 ,20.5 
2003/10/3,10:15:00,20.3 ,68.6 ,19.1 ,19.5 ,20.4 
2003/10/3,10:30:00,20.3 ,68.5 ,19.1 ,19.5 ,20.3 
2003/10/3,10:45:00,20.3 ,68.6 ,19.1 ,19.5 ,20.3 
2003/10/3,11:00:00,20.3 ,68.6 ,19.2 ,19.5 ,20.3 
2003/10/3,11:15:00,20.3 ,68.6 ,19.2 ,19.5 ,20.2 
2003/10/3,11:30:00,20.4 ,68.2 ,19.2 ,19.5 ,20.2 
2003/10/3,11:45:00,20.4 ,68.1 ,19.2 ,19.5 ,20.3 
2003/10/3,12:00:00,20.5 ,67.9 ,19.3 ,19.5 ,20.4 
2003/10/3,12:15:00,20.5 ,67.9 ,19.3 ,19.5 ,20.5 
2003/10/3,12:30:00,20.5 ,67.9 ,19.3 ,19.5 ,20.5 
2003/10/3,12:45:00,20.5 ,67.9 ,19.3 ,19.5 ,20.5 
2003/10/3,13:00:00,20.5 ,67.8 ,19.3 ,19.5 ,20.4 
2003/10/3,13:15:00,20.5 ,67.9 ,19.3 ,19.5 ,20.5 
2003/10/3,13:30:00,20.5 ,67.9 ,19.3 ,19.5 ,20.4 
2003/10/3,13:45:00,20.5 ,67.8 ,19.3 ,19.6 ,20.3 
2003/10/3,14:00:00,20.5 ,67.9 ,19.4 ,19.6 ,20.2 
2003/10/3,14:15:00,20.5 ,67.6 ,19.4 ,19.6 ,20.4 
2003/10/3,14:30:00,20.5 ,67.6 ,19.4 ,19.6 ,20.4 
2003/10/3,14:45:00,20.5 ,67.5 ,19.4 ,19.6 ,20.3 
2003/10/3,15:00:00,20.6 ,67.5 ,19.4 ,19.6 ,20.2 
2003/10/3,15:15:00,20.5 ,67.2 ,19.4 ,19.6 ,20.2 
2003/10/3,15:30:00,20.5 ,67.3 ,19.4 ,19.6 ,20.2 
2003/10/3,15:45:00,20.5 ,66.9 ,19.4 ,19.6 ,20.2 
2003/10/3,16:00:00,20.5 ,66.7 ,19.4 ,19.6 ,20.2 
2003/10/3,16:15:00,20.5 ,66.6 ,19.4 ,19.6 ,20.2 
2003/10/3,16:30:00,20.5 ,66.5 ,19.4 ,19.6 ,20.1 
2003/10/3,16:45:00,20.5 ,66.4 ,19.4 ,19.6 ,20.1 
2003/10/3,17:00:00,20.4 ,66.3 ,19.4 ,19.6 ,20.1 
2003/10/3,17:15:00,20.4 ,66.3 ,19.4 ,19.6 ,20.0 
2003/10/3,17:30:00,20.4 ,66.3 ,19.3 ,19.6 ,19.8 
2003/10/3,17:45:00,20.3 ,66.3 ,19.3 ,19.6 ,19.8 
2003/10/3,18:00:00,20.3 ,66.2 ,19.3 ,19.7 ,19.6 
2003/10/3,18:15:00,20.3 ,66.3 ,19.3 ,19.7 ,19.6 
2003/10/3,18:30:00,20.2 ,66.4 ,19.3 ,19.7 ,19.4 
2003/10/3,18:45:00,20.2 ,66.4 ,19.3 ,19.7 ,19.4 
2003/10/3,19:00:00,20.1 ,66.5 ,19.3 ,19.7 ,19.4 
2003/10/3,19:15:00,20.1 ,66.6 ,19.3 ,19.7 ,19.3 
2003/10/3,19:30:00,20.1 ,66.5 ,19.2 ,19.7 ,19.2 
2003/10/3,19:45:00,20.0 ,66.7 ,19.2 ,19.7 ,19.2 
2003/10/3,20:00:00,20.0 ,66.6 ,19.2 ,19.7 ,19.2 
2003/10/3,20:15:00,19.9 ,66.7 ,19.2 ,19.7 ,19.1 
2003/10/3,20:30:00,19.9 ,66.7 ,19.2 ,19.7 ,19.0 
2003/10/3,20:45:00,19.9 ,66.7 ,19.1 ,19.7 ,19.0 
2003/10/3,21:00:00,19.8 ,66.7 ,19.1 ,19.7 ,18.9 
2003/10/3,21:15:00,19.8 ,66.7 ,19.1 ,19.7 ,18.9 
2003/10/3,21:30:00,19.7 ,66.7 ,19.1 ,19.7 ,18.8 
2003/10/3,21:45:00,19.7 ,66.8 ,19.1 ,19.7 ,18.8 
2003/10/3,22:00:00,19.7 ,66.8 ,19.0 ,19.7 ,18.7 
2003/10/3,22:15:00,19.6 ,66.8 ,19.0 ,19.7 ,18.7 
2003/10/3,22:30:00,19.6 ,66.8 ,19.0 ,19.7 ,18.7 
2003/10/3,22:45:00,19.6 ,66.8 ,19.0 ,19.7 ,18.7 
2003/10/3,23:00:00,19.5 ,66.9 ,18.9 ,19.7 ,18.6 
2003/10/3,23:15:00,19.5 ,66.9 ,18.9 ,19.7 ,18.6 
2003/10/3,23:30:00,19.5 ,67.0 ,18.9 ,19.7 ,18.5 
2003/10/3,23:45:00,19.5 ,66.9 ,18.9 ,19.7 ,18.5 
2003/10/4,0:00:00,19.4 ,67.9 ,18.9 ,19.1 ,18.9 
2003/10/4,0:15:00,19.4 ,67.4 ,18.8 ,19.1 ,19.1 
2003/10/4,0:30:00,19.4 ,67.3 ,18.8 ,19.1 ,18.9 
2003/10/4,0:45:00,19.4 ,67.4 ,18.8 ,19.1 ,18.7 
2003/10/4,1:00:00,19.4 ,67.4 ,18.8 ,19.1 ,18.5 
2003/10/4,1:15:00,19.4 ,67.3 ,18.8 ,18.8 ,18.5 
2003/10/4,1:30:00,19.4 ,67.4 ,18.7 ,18.8 ,18.4 
2003/10/4,1:45:00,19.4 ,67.5 ,18.7 ,19.3 ,18.5 
2003/10/4,2:00:00,19.4 ,67.4 ,18.7 ,19.3 ,18.4 
2003/10/4,2:15:00,19.3 ,67.3 ,18.7 ,19.3 ,18.4 
2003/10/4,2:30:00,19.3 ,67.4 ,18.7 ,19.3 ,18.3 
2003/10/4,2:45:00,19.3 ,67.4 ,18.6 ,19.3 ,18.3 
2003/10/4,3:00:00,19.2 ,67.3 ,18.6 ,19.3 ,18.3 
2003/10/4,3:15:00,19.2 ,67.4 ,18.6 ,19.3 ,18.3 
2003/10/4,3:30:00,19.2 ,67.4 ,18.6 ,19.3 ,18.2 
2003/10/4,3:45:00,19.2 ,67.4 ,18.6 ,19.3 ,18.2 
2003/10/4,4:00:00,19.1 ,67.5 ,18.6 ,19.3 ,18.2 
2003/10/4,4:15:00,19.1 ,67.5 ,18.5 ,19.3 ,18.1 
2003/10/4,4:30:00,19.1 ,67.5 ,18.5 ,19.3 ,18.1 
2003/10/4,4:45:00,19.0 ,67.5 ,18.5 ,19.3 ,18.1 
2003/10/4,5:00:00,19.0 ,67.5 ,18.5 ,19.3 ,18.1 
2003/10/4,5:15:00,19.0 ,67.6 ,18.4 ,19.3 ,18.1 
2003/10/4,5:30:00,18.9 ,67.6 ,18.4 ,19.3 ,18.1 
2003/10/4,5:45:00,18.9 ,67.7 ,18.4 ,19.3 ,18.1 
2003/10/4,6:00:00,18.9 ,67.7 ,18.4 ,19.3 ,18.1 
2003/10/4,6:15:00,18.9 ,67.8 ,18.3 ,19.3 ,18.0 
2003/10/4,6:30:00,18.8 ,67.8 ,18.3 ,19.3 ,18.0 
2003/10/4,6:45:00,18.8 ,67.8 ,18.3 ,19.3 ,18.0 
2003/10/4,7:00:00,18.8 ,67.8 ,18.3 ,19.2 ,18.1 
2003/10/4,7:15:00,18.9 ,67.7 ,18.3 ,19.2 ,18.1 
2003/10/4,7:30:00,19.0 ,67.5 ,18.3 ,19.2 ,18.3 
2003/10/4,7:45:00,19.1 ,67.6 ,18.3 ,19.2 ,18.6 
2003/10/4,8:00:00,19.2 ,67.7 ,18.3 ,19.2 ,18.8 
2003/10/4,8:15:00,19.3 ,67.8 ,18.3 ,19.2 ,19.0 
2003/10/4,8:30:00,19.3 ,67.9 ,18.3 ,19.2 ,19.1 
2003/10/4,8:45:00,19.4 ,68.1 ,18.3 ,19.2 ,19.2 
2003/10/4,9:00:00,19.5 ,68.8 ,18.4 ,19.2 ,19.4 
2003/10/4,9:15:00,19.5 ,68.9 ,18.4 ,19.2 ,19.5 
2003/10/4,9:30:00,19.5 ,69.0 ,18.4 ,19.2 ,19.6 
2003/10/4,9:45:00,19.7 ,69.0 ,18.5 ,19.2 ,19.8 
2003/10/4,10:00:00,19.8 ,68.8 ,18.5 ,19.2 ,19.9 
2003/10/4,10:15:00,19.8 ,69.0 ,18.6 ,19.2 ,20.0 
2003/10/4,10:30:00,19.9 ,68.7 ,18.6 ,19.2 ,20.1 
2003/10/4,10:45:00,20.0 ,68.4 ,18.6 ,19.2 ,20.2 
2003/10/4,11:00:00,20.0 ,68.4 ,18.7 ,19.2 ,20.3 
2003/10/4,11:15:00,20.1 ,68.4 ,18.7 ,19.2 ,20.4 
2003/10/4,11:30:00,20.1 ,68.5 ,18.7 ,19.2 ,20.3 
2003/10/4,11:45:00,20.1 ,68.5 ,18.7 ,19.2 ,20.3 
2003/10/4,12:00:00,20.1 ,68.6 ,18.8 ,19.2 ,20.3 
2003/10/4,12:15:00,20.1 ,68.7 ,18.8 ,19.2 ,20.3 
2003/10/4,12:30:00,20.2 ,68.7 ,18.9 ,19.2 ,20.3 
2003/10/4,12:45:00,20.3 ,68.3 ,18.9 ,19.3 ,20.4 
2003/10/4,13:00:00,20.3 ,68.3 ,18.9 ,19.3 ,20.5 
2003/10/4,13:15:00,20.3 ,68.1 ,18.9 ,19.3 ,20.5 
2003/10/4,13:30:00,20.4 ,68.1 ,19.0 ,19.3 ,20.6 
2003/10/4,13:45:00,20.4 ,68.0 ,19.0 ,19.3 ,20.6 
2003/10/4,14:00:00,20.4 ,67.9 ,19.0 ,19.3 ,20.6 
2003/10/4,14:15:00,20.5 ,67.9 ,19.0 ,19.3 ,20.6 
2003/10/4,14:30:00,20.5 ,67.6 ,19.1 ,19.3 ,20.6 
2003/10/4,14:45:00,20.5 ,67.4 ,19.1 ,19.3 ,20.7 
2003/10/4,15:00:00,20.5 ,67.2 ,19.1 ,19.3 ,20.7 
2003/10/4,15:15:00,20.5 ,67.0 ,19.1 ,19.3 ,20.6 
2003/10/4,15:30:00,20.5 ,66.7 ,19.1 ,19.3 ,20.6 
2003/10/4,15:45:00,20.5 ,66.6 ,19.1 ,19.4 ,20.6 
2003/10/4,16:00:00,20.4 ,66.6 ,19.1 ,19.4 ,20.6 
2003/10/4,16:15:00,20.4 ,66.5 ,19.1 ,19.4 ,20.5 
2003/10/4,16:30:00,20.4 ,66.1 ,19.1 ,19.4 ,20.5 
2003/10/4,16:45:00,20.4 ,66.3 ,19.1 ,19.4 ,20.5 
2003/10/4,17:00:00,20.3 ,66.3 ,19.1 ,19.4 ,20.4 
2003/10/4,17:15:00,20.3 ,66.3 ,19.1 ,19.4 ,20.4 
2003/10/4,17:30:00,20.3 ,66.3 ,19.1 ,19.4 ,20.4 
2003/10/4,17:45:00,20.2 ,66.3 ,19.1 ,19.4 ,20.3 
2003/10/4,18:00:00,20.2 ,66.3 ,19.1 ,19.4 ,20.2 
2003/10/4,18:15:00,20.2 ,66.3 ,19.1 ,19.4 ,20.2 
2003/10/4,18:30:00,20.1 ,66.3 ,19.1 ,19.4 ,20.2 
2003/10/4,18:45:00,20.1 ,66.2 ,19.1 ,19.4 ,20.1 
2003/10/4,19:00:00,20.0 ,66.2 ,19.1 ,19.4 ,20.0 
2003/10/4,19:15:00,20.0 ,66.2 ,19.1 ,19.4 ,20.0 
2003/10/4,19:30:00,19.9 ,66.1 ,19.0 ,19.4 ,20.0 
2003/10/4,19:45:00,19.9 ,66.3 ,19.0 ,19.4 ,20.0 
2003/10/4,20:00:00,19.9 ,66.4 ,19.0 ,19.5 ,19.9 
2003/10/4,20:15:00,19.8 ,66.4 ,19.0 ,19.5 ,19.9 
2003/10/4,20:30:00,19.8 ,66.6 ,19.0 ,19.5 ,19.9 
2003/10/4,20:45:00,19.8 ,66.7 ,19.0 ,19.5 ,19.7 
2003/10/4,21:00:00,19.8 ,66.7 ,18.9 ,19.6 ,19.4 
2003/10/4,21:15:00,19.8 ,66.8 ,18.9 ,19.6 ,19.2 
2003/10/4,21:30:00,19.8 ,66.8 ,18.9 ,19.6 ,19.0 
2003/10/4,21:45:00,19.8 ,66.8 ,18.9 ,19.6 ,18.9 
2003/10/4,22:00:00,19.8 ,67.6 ,18.9 ,19.6 ,19.1 
2003/10/4,22:15:00,19.9 ,69.2 ,18.9 ,19.2 ,19.4 
2003/10/4,22:30:00,19.8 ,68.8 ,18.9 ,19.2 ,19.6 
2003/10/4,22:45:00,19.8 ,69.0 ,18.9 ,19.2 ,19.7 
2003/10/4,23:00:00,19.8 ,69.7 ,18.9 ,19.2 ,19.8 
2003/10/4,23:15:00,19.8 ,70.4 ,18.9 ,19.2 ,19.8 
2003/10/4,23:30:00,19.8 ,69.2 ,18.9 ,19.2 ,20.2 
2003/10/4,23:45:00,19.8 ,69.4 ,18.8 ,19.2 ,20.2 
2003/10/5,0:00:00,19.8 ,69.4 ,18.8 ,19.2 ,20.0 
2003/10/5,0:15:00,19.8 ,69.7 ,18.8 ,19.3 ,19.9 
2003/10/5,0:30:00,19.8 ,69.6 ,18.8 ,19.3 ,19.8 
2003/10/5,0:45:00,19.8 ,69.7 ,18.8 ,18.7 ,19.5 
2003/10/5,1:00:00,19.8 ,69.6 ,18.8 ,18.6 ,19.3 
2003/10/5,1:15:00,19.7 ,69.5 ,18.8 ,18.7 ,19.0 
2003/10/5,1:30:00,19.7 ,69.1 ,18.7 ,18.7 ,18.8 
2003/10/5,1:45:00,19.7 ,68.8 ,18.7 ,18.7 ,18.8 
2003/10/5,2:00:00,19.6 ,68.9 ,18.7 ,18.7 ,18.6 
2003/10/5,2:15:00,19.6 ,69.1 ,18.7 ,18.7 ,18.5 
2003/10/5,2:30:00,19.5 ,69.0 ,18.7 ,18.7 ,18.5 
2003/10/5,2:45:00,19.5 ,68.9 ,18.7 ,18.7 ,18.4 
2003/10/5,3:00:00,19.5 ,69.1 ,18.6 ,18.7 ,18.4 
2003/10/5,3:15:00,19.4 ,69.2 ,18.6 ,18.8 ,18.4 
2003/10/5,3:30:00,19.4 ,69.4 ,18.6 ,18.8 ,18.3 
2003/10/5,3:45:00,19.4 ,69.4 ,18.6 ,18.8 ,18.3 
2003/10/5,4:00:00,19.3 ,69.5 ,18.6 ,18.8 ,18.3 
2003/10/5,4:15:00,19.3 ,69.4 ,18.5 ,18.8 ,18.2 
2003/10/5,4:30:00,19.3 ,69.3 ,18.5 ,18.8 ,18.2 
2003/10/5,4:45:00,19.2 ,69.3 ,18.5 ,18.8 ,18.1 
2003/10/5,5:00:00,19.2 ,69.3 ,18.5 ,18.8 ,18.1 
2003/10/5,5:15:00,19.2 ,69.3 ,18.4 ,18.8 ,18.0 
2003/10/5,5:30:00,19.1 ,69.3 ,18.4 ,18.8 ,18.0 
2003/10/5,5:45:00,19.1 ,69.2 ,18.4 ,18.8 ,18.0 
2003/10/5,6:00:00,19.1 ,69.2 ,18.4 ,18.8 ,18.0 
2003/10/5,6:15:00,19.1 ,69.2 ,18.3 ,18.9 ,17.9 
2003/10/5,6:30:00,19.0 ,69.2 ,18.3 ,18.9 ,17.9 
2003/10/5,6:45:00,19.0 ,69.3 ,18.3 ,18.9 ,18.0 
2003/10/5,7:00:00,19.0 ,69.3 ,18.3 ,18.9 ,18.0 
2003/10/5,7:15:00,19.0 ,69.3 ,18.3 ,18.9 ,18.1 
2003/10/5,7:30:00,19.0 ,69.3 ,18.3 ,18.9 ,18.2 
2003/10/5,7:45:00,19.0 ,69.3 ,18.3 ,18.9 ,18.2 
2003/10/5,8:00:00,19.1 ,69.4 ,18.3 ,18.9 ,18.3 
2003/10/5,8:15:00,19.1 ,69.4 ,18.3 ,18.9 ,18.3 
2003/10/5,8:30:00,19.1 ,69.7 ,18.3 ,18.9 ,18.4 
2003/10/5,8:45:00,19.1 ,70.4 ,18.3 ,18.9 ,18.6 
2003/10/5,9:00:00,19.2 ,70.2 ,18.3 ,18.3 ,18.6 
2003/10/5,9:15:00,19.2 ,70.1 ,18.3 ,18.3 ,18.6 
2003/10/5,9:30:00,19.2 ,70.1 ,18.3 ,18.3 ,18.6 
2003/10/5,9:45:00,19.3 ,69.7 ,18.3 ,18.3 ,18.6 
2003/10/5,10:00:00,19.3 ,69.6 ,18.3 ,18.3 ,18.7 
2003/10/5,10:15:00,19.5 ,69.2 ,18.3 ,18.3 ,18.9 
2003/10/5,10:30:00,19.6 ,68.8 ,18.4 ,18.2 ,19.3 
2003/10/5,10:45:00,19.7 ,68.5 ,18.4 ,18.2 ,19.7 
2003/10/5,11:00:00,19.8 ,68.2 ,18.4 ,18.2 ,20.0 
2003/10/5,11:15:00,19.8 ,68.0 ,18.4 ,18.3 ,20.0 
2003/10/5,11:30:00,20.0 ,67.4 ,18.4 ,18.3 ,20.2 
2003/10/5,11:45:00,20.1 ,67.1 ,18.5 ,18.3 ,20.5 
2003/10/5,12:00:00,20.2 ,66.7 ,18.5 ,18.3 ,20.6 
2003/10/5,12:15:00,20.2 ,65.9 ,18.5 ,18.3 ,20.6 
2003/10/5,12:30:00,20.3 ,65.9 ,18.6 ,18.3 ,21.1 
2003/10/5,12:45:00,20.5 ,65.4 ,18.6 ,19.5 ,22.6 
2003/10/5,13:00:00,20.4 ,65.9 ,18.6 ,19.5 ,22.2 
2003/10/5,13:15:00,20.6 ,66.5 ,18.6 ,19.5 ,21.9 
2003/10/5,13:30:00,20.6 ,65.7 ,18.6 ,19.5 ,21.6 
2003/10/5,13:45:00,20.6 ,65.4 ,18.7 ,19.5 ,21.4 
2003/10/5,14:00:00,20.6 ,65.2 ,18.7 ,18.7 ,21.3 
2003/10/5,14:15:00,20.6 ,65.0 ,18.7 ,18.7 ,21.1 
2003/10/5,14:30:00,20.6 ,65.1 ,18.7 ,18.7 ,21.1 
2003/10/5,14:45:00,20.6 ,65.0 ,18.7 ,18.8 ,21.0 
2003/10/5,15:00:00,20.6 ,64.9 ,18.8 ,18.8 ,21.0 
2003/10/5,15:15:00,20.6 ,64.7 ,18.8 ,18.8 ,20.9 
2003/10/5,15:30:00,20.6 ,64.9 ,18.8 ,18.8 ,20.9 
2003/10/5,15:45:00,20.5 ,62.9 ,18.8 ,18.8 ,20.7 
2003/10/5,16:00:00,20.4 ,63.3 ,18.8 ,18.4 ,20.6 
2003/10/5,16:15:00,20.4 ,63.3 ,18.8 ,18.4 ,20.6 
2003/10/5,16:30:00,20.4 ,62.3 ,18.8 ,18.5 ,20.9 
2003/10/5,16:45:00,20.4 ,63.3 ,18.8 ,18.5 ,20.9 
2003/10/5,17:00:00,20.5 ,63.6 ,18.8 ,18.5 ,20.9 
2003/10/5,17:15:00,20.5 ,64.4 ,18.8 ,18.5 ,20.8 
2003/10/5,17:30:00,20.5 ,64.2 ,18.8 ,18.3 ,20.7 
2003/10/5,17:45:00,20.5 ,64.7 ,18.8 ,18.3 ,20.6 
2003/10/5,18:00:00,20.5 ,64.9 ,18.8 ,18.4 ,20.5 
2003/10/5,18:15:00,20.4 ,64.8 ,18.8 ,18.4 ,20.7 
2003/10/5,18:30:00,20.4 ,64.7 ,18.8 ,18.4 ,22.5 
2003/10/5,18:45:00,20.3 ,64.4 ,18.8 ,19.1 ,23.4 
2003/10/5,19:00:00,20.3 ,64.5 ,18.8 ,19.1 ,22.8 
2003/10/5,19:15:00,20.3 ,64.9 ,18.8 ,19.1 ,21.9 
2003/10/5,19:30:00,20.2 ,66.3 ,18.7 ,19.1 ,21.6 
2003/10/5,19:45:00,20.3 ,66.9 ,18.7 ,19.1 ,21.7 
2003/10/5,20:00:00,20.3 ,67.5 ,18.7 ,19.1 ,21.4 
2003/10/5,20:15:00,20.3 ,67.9 ,18.7 ,18.8 ,21.5 
2003/10/5,20:30:00,20.3 ,68.3 ,18.7 ,18.8 ,21.5 
2003/10/5,20:45:00,20.4 ,68.7 ,18.7 ,18.8 ,21.3 
2003/10/5,21:00:00,20.4 ,68.6 ,18.8 ,18.6 ,21.1 
2003/10/5,21:15:00,20.4 ,69.0 ,18.8 ,18.6 ,21.0 
2003/10/5,21:30:00,20.3 ,68.9 ,18.8 ,18.6 ,20.8 
2003/10/5,21:45:00,20.3 ,69.1 ,18.8 ,18.6 ,20.6 
2003/10/5,22:00:00,20.2 ,69.5 ,18.8 ,18.6 ,20.5 
2003/10/5,22:15:00,20.2 ,69.3 ,18.8 ,18.6 ,20.4 
2003/10/5,22:30:00,20.2 ,69.2 ,18.8 ,18.6 ,20.3 
2003/10/5,22:45:00,20.1 ,69.0 ,18.8 ,18.7 ,20.2 
2003/10/5,23:00:00,20.0 ,68.8 ,18.8 ,18.7 ,20.2 
2003/10/5,23:15:00,20.0 ,68.6 ,18.8 ,18.7 ,20.1 
2003/10/5,23:30:00,19.9 ,68.4 ,18.8 ,18.7 ,20.0 
2003/10/5,23:45:00,19.9 ,68.3 ,18.8 ,18.7 ,19.9 
2003/10/6,0:00:00,19.8 ,68.2 ,18.7 ,18.7 ,19.8 
2003/10/6,0:15:00,19.8 ,68.1 ,18.7 ,18.7 ,19.8 
2003/10/6,0:30:00,19.8 ,68.1 ,18.7 ,18.7 ,19.7 